Preview of NWS' New Version of Forecast
This preview is not operational and should not be used for support decisions.
Latest weather observations around

Murrieta (SDMEA)

Using English Units (Switch to International System of Units)
Date/ Time (PST) Wind (mph) Vis. (mi) Weather Sky Cond. Temp (°F) Rel. Humidity Wind Chill (°F) Heat Index (°F) Pressure Precip. (in)
Air Dwpt 6 hour Altimeter (inHg) Sea level (inHg) 1 hr 3 hr 6 hr
Max Min
Feb 21 13:49 Calm   Clear   50 42     73%     29.6        
Feb 21 12:49 Calm   Clear   50 40     69%     29.61        
Feb 21 11:49 W 4   Clear   53 39     60%     29.63        
Feb 21 10:49 WNW 7   Clear   49 42     76% 46   29.64        
Feb 21 09:49 Calm   Clear   47 43     86%     29.64        
Feb 21 08:49 Calm   Clear   45 43     92%     29.65        
Feb 21 07:49 N 1   Clear   43 41     94%     29.64        
Feb 21 06:49 Calm   Clear   44 42     92%     29.63        
Feb 21 05:49 Calm   Clear   44 42     91%     29.62        
Feb 21 04:49 W 6   Clear   43 41     93% 39   29.64        
Feb 21 03:49 Calm   Clear   43 42     95%     29.65        
Feb 21 02:49 Calm   Clear   44 43     95%     29.66        
Feb 21 01:49 Calm   Clear   44 43     96%     29.68        
Feb 21 00:49 Calm   Clear   44 43     97%     29.72        
Feb 20 23:49 Calm   Clear   44 43     97%     29.72        
Feb 20 22:49 Calm   Clear   44 43     96%     29.74        
Feb 20 21:49 Calm   Clear   44 43     96%     29.76        
Feb 20 20:49 WSW 5   Clear   44 43     95% 41   29.77        
Feb 20 19:49 Calm   Clear   46 44     91%     29.78        
Feb 20 18:49 Calm   Clear   46 43     89%     29.79        
Feb 20 17:49 Calm   Clear   48 44     85%     29.79        
Feb 20 16:49 SW 5   Clear   49 44     83% 47   29.82        
Feb 20 15:49 Calm   Clear   50 41     72%     29.85        
Feb 20 14:49 Calm   Clear   51 42     70%     29.87        
Feb 20 13:49 Calm   Clear   49 43     81%     29.89        
Feb 20 12:49 N 1   Clear   49 42     78%     29.92        
Feb 20 11:49 Calm   Clear   49 42     76%     29.97        
Feb 20 09:49 WSW 7   Clear   51 40     67%     30        
Feb 20 08:49 Calm   Clear   43 38     83%     30.04        
Feb 20 07:49 Calm   Clear   37 36     95%     30.05        
Feb 20 06:49 WSW 4   Clear   32 31     96% 28   30.06        
Feb 20 05:49 SW 4   Clear   33 32     96% 29   30.06        
Feb 20 04:49 W 1   Clear   34 33     96%     30.06        
Feb 20 03:49 WSW 2   Clear   33 32     96%     30.06        
Feb 20 02:49 WSW 4   Clear   34 33     96% 30   30.07        
Feb 20 01:49 Calm   Clear   35 33     94%     30.1        
Feb 20 00:49 WSW 2   Clear   37 34     90%     30.12        
Feb 19 23:49 SW 1   Clear   38 35     90%     30.13        
Feb 19 22:49 Calm   Clear   39 35     86%     30.14        
Feb 19 21:49 Calm   Clear   42 37     83%     30.14        
Feb 19 20:49 Calm   Clear   44 37     77%     30.13        
Feb 19 19:49 Calm   Clear   46 38     73%     30.12        
Feb 19 18:49 WNW 2   Clear   47 37     69%     30.1        
Feb 19 17:49 SW 1   Clear   49 37     64%     30.09        
Feb 19 16:49 WNW 4   Clear   52 38     58%     30.08        
Feb 19 15:49 Calm   Clear   54 33     44%     30.08        
Notice The following observation data may not be complete
Feb 19 14:49     Clear            %              
Feb 19 13:49 Calm   Clear   57 27     32%     30.1        
Feb 19 12:49 Calm   Clear   57        %     30.12        
Feb 19 11:49 WSW 5   Clear   55 25     31%     30.15        
Feb 19 10:49 S 4   Clear   54 28     37%     30.16        
Feb 19 09:49 Calm   Clear   51 30     44%     30.16        
Feb 19 08:49 ENE 3   Clear   47 29     50% 46   30.16        
Feb 19 07:49 Calm   Clear   43        %     30.15        
Feb 19 06:49 NE 6   Clear   34 32     94% 29   30.13        
Feb 19 05:49 Calm   Clear   32 31     97%     30.11        
Feb 19 04:49 Calm   Clear   32 31     97%     30.11        
Feb 19 03:49 Calm   Clear   32 31     97%     30.1        
Feb 19 02:49 Calm   Clear   33 32     97%     30.1        
Feb 19 01:49 Calm   Clear   34 33     97%     30.11        
Feb 19 00:49 Calm   Clear   34 33     96%     30.11        
Feb 18 23:49 Calm   Clear   34 33     96%     30.11        
Feb 18 22:49 Calm   Clear   35 34     96%     30.1        
Feb 18 21:49 Calm   Clear   36 34     94%     30.11        
Feb 18 20:49 Calm   Clear   37 34     90%     30.08        
Feb 18 19:49 Calm   Clear   39 36     88%     30.07        
Feb 18 18:49 SW 5   Clear   41 37     85% 38   30.06        
Feb 18 17:49 Calm   Clear   44 38     78%     30.03        
Feb 18 16:49 Calm   Clear   46 38     73%     30.03        
Feb 18 15:49     Clear   50 37     60%     30        
Feb 18 14:49 SW 10   Clear   54 37     53%     29.98        
Feb 18 13:49 NW 1   Clear   54        %     30        
May 15 11:49 Calm   Clear   67 55     66%     30.07        
Notice The following observation data may not be complete
May 15 09:49     Clear            %              
Notice The following observation data may not be complete
May 14 19:49     Clear            %              
May 14 00:49 SW 6   Clear   53 52     96%     30.02        
May 13 17:49 N 3   Clear   66 53     63%     29.96        
Notice The following observation data may not be complete
May 13 10:49     Clear            %              
May 13 02:49 Calm   Clear   55 50     84%     30.02        
May 12 07:49 Calm   Clear   54 51     89%     29.98        
May 11 07:49 Calm   Clear   55 52     90%     29.9        
Notice The following observation data may not be complete
Jun 12 01:49     Clear            %              
Jun 11 22:49 Calm   Clear   56 53     89%     30.01        
Jun 11 21:49 WSW 3   Clear   57 53     88%     30        
Jun 11 10:49 Calm   Clear   58 57     95%     29.96        
Notice The following observation data may not be complete
Jun 11 08:49     Clear            %              
Notice The following observation data may not be complete
Jun 09 17:49     Clear            %              
Notice The following observation data may not be complete
Jun 09 10:49     Clear            %              
Jun 09 01:49 Calm   Clear   58 57     96%     29.98        
Notice The following observation data may not be complete
Jun 07 20:49     Clear            %              
Jun 06 11:49 WSW 8   Clear   69 61     77%     29.98